Year,Month,Day,Hour,Minute,Value (Times are PST for barometer in hPa)
2020,11,13,00,00,992.75
2020,11,13,00,01,992.72
2020,11,13,00,02,992.72
2020,11,13,00,03,992.72
2020,11,13,00,04,992.72
2020,11,13,00,05,992.72
2020,11,13,00,06,992.72
2020,11,13,00,07,992.72
2020,11,13,00,08,992.72
2020,11,13,00,09,992.72
2020,11,13,00,10,992.72
2020,11,13,00,11,992.72
2020,11,13,00,12,992.72
2020,11,13,00,13,992.72
2020,11,13,00,14,992.72
2020,11,13,00,15,992.14
2020,11,13,00,16,992.14
2020,11,13,00,17,992.14
2020,11,13,00,18,992.14
2020,11,13,00,19,992.14
2020,11,13,00,20,992.14
2020,11,13,00,21,992.14
2020,11,13,00,22,992.14
2020,11,13,00,23,992.14
2020,11,13,00,24,992.14
2020,11,13,00,25,992.14
2020,11,13,00,26,992.14
2020,11,13,00,27,992.14
2020,11,13,00,28,992.14
2020,11,13,00,29,992.12
2020,11,13,00,30,991.47
2020,11,13,00,31,991.47
2020,11,13,00,32,991.47
2020,11,13,00,33,991.47
2020,11,13,00,34,991.47
2020,11,13,00,35,991.47
2020,11,13,00,36,991.47
2020,11,13,00,37,991.47
2020,11,13,00,38,991.47
2020,11,13,00,39,991.47
2020,11,13,00,40,991.47
2020,11,13,00,41,991.47
2020,11,13,00,42,991.47
2020,11,13,00,43,991.47
2020,11,13,00,44,991.45
2020,11,13,00,45,990.99
2020,11,13,00,46,990.99
2020,11,13,00,47,990.99
2020,11,13,00,48,990.99
2020,11,13,00,49,990.99
2020,11,13,00,50,990.99
2020,11,13,00,51,990.99
2020,11,13,00,52,990.99
2020,11,13,00,53,990.99
2020,11,13,00,54,990.99
2020,11,13,00,55,990.99
2020,11,13,00,56,990.99
2020,11,13,00,57,990.99
2020,11,13,00,58,990.99
2020,11,13,00,59,990.99
2020,11,13,01,00,990.18
2020,11,13,01,01,990.18
2020,11,13,01,02,990.18
2020,11,13,01,03,990.18
2020,11,13,01,04,990.18
2020,11,13,01,05,990.18
2020,11,13,01,06,990.18
2020,11,13,01,07,990.18
2020,11,13,01,08,990.18
2020,11,13,01,09,990.18
2020,11,13,01,10,990.18
2020,11,13,01,11,990.18
2020,11,13,01,12,990.18
2020,11,13,01,13,990.18
2020,11,13,01,14,990.18
2020,11,13,01,15,989.54
2020,11,13,01,16,989.54
2020,11,13,01,17,989.54
2020,11,13,01,18,989.54
2020,11,13,01,19,989.54
2020,11,13,01,20,989.54
2020,11,13,01,21,989.54
2020,11,13,01,22,989.54
2020,11,13,01,23,989.54
2020,11,13,01,24,989.54
2020,11,13,01,25,989.54
2020,11,13,01,26,989.54
2020,11,13,01,27,989.54
2020,11,13,01,28,989.54
2020,11,13,01,29,989.54
2020,11,13,01,30,988.69
2020,11,13,01,31,988.69
2020,11,13,01,32,988.69
2020,11,13,01,33,988.69
2020,11,13,01,34,988.69
2020,11,13,01,35,988.69
2020,11,13,01,36,988.69
2020,11,13,01,37,988.69
2020,11,13,01,38,988.69
2020,11,13,01,39,988.69
2020,11,13,01,40,988.69
2020,11,13,01,41,988.69
2020,11,13,01,42,988.69
2020,11,13,01,43,988.69
2020,11,13,01,44,988.69
2020,11,13,01,45,988.08
2020,11,13,01,46,988.08
2020,11,13,01,47,988.08
2020,11,13,01,48,988.08
2020,11,13,01,49,988.08
2020,11,13,01,50,988.08
2020,11,13,01,51,988.08
2020,11,13,01,52,988.08
2020,11,13,01,53,988.08
2020,11,13,01,54,988.08
2020,11,13,01,55,988.08
2020,11,13,01,56,988.08
2020,11,13,01,57,988.08
2020,11,13,01,58,988.08
2020,11,13,01,59,988.05
2020,11,13,02,00,987.54
2020,11,13,02,01,987.54
2020,11,13,02,02,987.54
2020,11,13,02,03,987.54
2020,11,13,02,04,987.54
2020,11,13,02,05,987.54
2020,11,13,02,06,987.54
2020,11,13,02,07,987.54
2020,11,13,02,08,987.54
2020,11,13,02,09,987.54
2020,11,13,02,10,987.54
2020,11,13,02,11,987.54
2020,11,13,02,12,987.54
2020,11,13,02,13,987.54
2020,11,13,02,14,987.51
2020,11,13,02,15,987.00
2020,11,13,02,16,987.00
2020,11,13,02,17,987.00
2020,11,13,02,18,987.00
2020,11,13,02,19,987.00
2020,11,13,02,20,987.00
2020,11,13,02,21,987.00
2020,11,13,02,22,987.00
2020,11,13,02,23,987.00
2020,11,13,02,24,987.00
2020,11,13,02,25,987.00
2020,11,13,02,26,987.00
2020,11,13,02,27,987.00
2020,11,13,02,28,987.00
2020,11,13,02,29,987.00
2020,11,13,02,30,986.59
2020,11,13,02,31,986.59
2020,11,13,02,32,986.59
2020,11,13,02,33,986.59
2020,11,13,02,34,986.59
2020,11,13,02,35,986.59
2020,11,13,02,36,986.59
2020,11,13,02,37,986.59
2020,11,13,02,38,986.59
2020,11,13,02,39,986.59
2020,11,13,02,40,986.59
2020,11,13,02,41,986.59
2020,11,13,02,42,986.59
2020,11,13,02,43,986.59
2020,11,13,02,44,986.59
2020,11,13,02,45,986.05
2020,11,13,02,46,986.05
2020,11,13,02,47,986.05
2020,11,13,02,48,986.05
2020,11,13,02,49,986.05
2020,11,13,02,50,986.05
2020,11,13,02,51,986.05
2020,11,13,02,52,986.05
2020,11,13,02,53,986.05
2020,11,13,02,54,986.05
2020,11,13,02,55,986.05
2020,11,13,02,56,986.05
2020,11,13,02,57,986.05
2020,11,13,02,58,986.05
2020,11,13,02,59,986.05
2020,11,13,03,00,985.44
2020,11,13,03,01,985.44
2020,11,13,03,02,985.44
2020,11,13,03,03,985.44
2020,11,13,03,04,985.44
2020,11,13,03,05,985.44
2020,11,13,03,06,985.44
2020,11,13,03,07,985.44
2020,11,13,03,08,985.44
2020,11,13,03,09,985.44
2020,11,13,03,10,985.44
2020,11,13,03,11,985.44
2020,11,13,03,12,985.44
2020,11,13,03,13,985.44
2020,11,13,03,14,985.41
2020,11,13,03,15,984.93
2020,11,13,03,16,984.93
2020,11,13,03,17,984.93
2020,11,13,03,18,984.93
2020,11,13,03,19,984.93
2020,11,13,03,20,984.93
2020,11,13,03,21,984.93
2020,11,13,03,22,984.93
2020,11,13,03,23,984.93
2020,11,13,03,24,984.93
2020,11,13,03,25,984.93
2020,11,13,03,26,984.93
2020,11,13,03,27,984.93
2020,11,13,03,28,984.93
2020,11,13,03,29,984.90
2020,11,13,03,30,984.39
2020,11,13,03,31,984.39
2020,11,13,03,32,984.39
2020,11,13,03,33,984.39
2020,11,13,03,34,984.39
2020,11,13,03,35,984.39
2020,11,13,03,36,984.39
2020,11,13,03,37,984.39
2020,11,13,03,38,984.39
2020,11,13,03,39,984.39
2020,11,13,03,40,984.39
2020,11,13,03,41,984.39
2020,11,13,03,42,984.39
2020,11,13,03,43,984.39
2020,11,13,03,44,984.39
2020,11,13,03,45,983.95
2020,11,13,03,46,983.95
2020,11,13,03,47,983.95
2020,11,13,03,48,983.95
2020,11,13,03,49,983.95
2020,11,13,03,50,983.95
2020,11,13,03,51,983.95
2020,11,13,03,52,983.95
2020,11,13,03,53,983.95
2020,11,13,03,54,983.95
2020,11,13,03,55,983.95
2020,11,13,03,56,983.95
2020,11,13,03,57,983.95
2020,11,13,03,58,983.95
2020,11,13,03,59,983.93
2020,11,13,04,00,983.41
2020,11,13,04,01,983.41
2020,11,13,04,02,983.41
2020,11,13,04,03,983.41
2020,11,13,04,04,983.41
2020,11,13,04,05,983.41
2020,11,13,04,06,983.41
2020,11,13,04,07,983.41
2020,11,13,04,08,983.41
2020,11,13,04,09,983.41
2020,11,13,04,10,983.41
2020,11,13,04,11,983.41
2020,11,13,04,12,983.41
2020,11,13,04,13,983.41
2020,11,13,04,14,983.41
2020,11,13,04,15,982.90
2020,11,13,04,16,982.90
2020,11,13,04,17,982.90
2020,11,13,04,18,982.90
2020,11,13,04,19,982.90
2020,11,13,04,20,982.90
2020,11,13,04,21,982.90
2020,11,13,04,22,982.90
2020,11,13,04,23,982.90
2020,11,13,04,24,982.90
2020,11,13,04,25,982.90
2020,11,13,04,26,982.90
2020,11,13,04,27,982.90
2020,11,13,04,28,982.90
2020,11,13,04,29,982.90
2020,11,13,04,30,983.17
2020,11,13,04,31,983.17
2020,11,13,04,32,983.17
2020,11,13,04,33,983.17
2020,11,13,04,34,983.17
2020,11,13,04,35,983.17
2020,11,13,04,36,983.17
2020,11,13,04,37,983.17
2020,11,13,04,38,983.17
2020,11,13,04,39,983.17
2020,11,13,04,40,983.17
2020,11,13,04,41,983.17
2020,11,13,04,42,983.17
2020,11,13,04,43,983.17
2020,11,13,04,44,983.17
2020,11,13,04,45,982.90
2020,11,13,04,46,982.90
2020,11,13,04,47,982.90
2020,11,13,04,48,982.90
2020,11,13,04,49,982.90
2020,11,13,04,50,982.90
2020,11,13,04,51,982.90
2020,11,13,04,52,982.90
2020,11,13,04,53,982.90
2020,11,13,04,54,982.90
2020,11,13,04,55,982.90
2020,11,13,04,56,982.90
2020,11,13,04,57,982.90
2020,11,13,04,58,982.90
2020,11,13,04,59,982.90
2020,11,13,05,00,982.97
2020,11,13,05,01,982.97
2020,11,13,05,02,982.97
2020,11,13,05,03,982.97
2020,11,13,05,04,982.97
2020,11,13,05,05,982.97
2020,11,13,05,06,982.97
2020,11,13,05,07,982.97
2020,11,13,05,08,982.97
2020,11,13,05,09,982.97
2020,11,13,05,10,982.97
2020,11,13,05,11,982.97
2020,11,13,05,12,982.97
2020,11,13,05,13,982.97
2020,11,13,05,14,982.97
2020,11,13,05,15,982.93
2020,11,13,05,16,982.93
2020,11,13,05,17,982.93
2020,11,13,05,18,982.93
2020,11,13,05,19,982.93
2020,11,13,05,20,982.93
2020,11,13,05,21,982.93
2020,11,13,05,22,982.93
2020,11,13,05,23,982.93
2020,11,13,05,24,982.93
2020,11,13,05,25,982.93
2020,11,13,05,26,982.93
2020,11,13,05,27,982.93
2020,11,13,05,28,982.93
2020,11,13,05,29,982.93
2020,11,13,05,30,982.66
2020,11,13,05,31,982.66
2020,11,13,05,32,982.66
2020,11,13,05,33,982.66
2020,11,13,05,34,982.66
2020,11,13,05,35,982.66
2020,11,13,05,36,982.66
2020,11,13,05,37,982.66
2020,11,13,05,38,982.66
2020,11,13,05,39,982.66
2020,11,13,05,40,982.66
2020,11,13,05,41,982.66
2020,11,13,05,42,982.66
2020,11,13,05,43,982.66
2020,11,13,05,44,982.66
2020,11,13,05,45,982.05
2020,11,13,05,46,982.05
2020,11,13,05,47,982.05
2020,11,13,05,48,982.05
2020,11,13,05,49,982.05
2020,11,13,05,50,982.05
2020,11,13,05,51,982.05
2020,11,13,05,52,982.05
2020,11,13,05,53,982.05
2020,11,13,05,54,982.05
2020,11,13,05,55,982.05
2020,11,13,05,56,982.05
2020,11,13,05,57,982.05
2020,11,13,05,58,982.05
2020,11,13,05,59,982.05
2020,11,13,06,00,982.39
2020,11,13,06,01,982.39
2020,11,13,06,02,982.39
2020,11,13,06,03,982.39
2020,11,13,06,04,982.39
2020,11,13,06,05,982.39
2020,11,13,06,06,982.39
2020,11,13,06,07,982.39
2020,11,13,06,08,982.39
2020,11,13,06,09,982.39
2020,11,13,06,10,982.39
2020,11,13,06,11,982.39
2020,11,13,06,12,982.39
2020,11,13,06,13,982.39
2020,11,13,06,14,982.39
2020,11,13,06,15,982.36
2020,11,13,06,16,982.36
2020,11,13,06,17,982.36
2020,11,13,06,18,982.36
2020,11,13,06,19,982.36
2020,11,13,06,20,982.36
2020,11,13,06,21,982.36
2020,11,13,06,22,982.36
2020,11,13,06,23,982.36
2020,11,13,06,24,982.36
2020,11,13,06,25,982.36
2020,11,13,06,26,982.36
2020,11,13,06,27,982.36
2020,11,13,06,28,982.36
2020,11,13,06,29,982.36
2020,11,13,06,30,982.36
2020,11,13,06,31,982.36
2020,11,13,06,32,982.36
2020,11,13,06,33,982.36
2020,11,13,06,34,982.36
2020,11,13,06,35,982.36
2020,11,13,06,36,982.36
2020,11,13,06,37,982.36
2020,11,13,06,38,982.36
2020,11,13,06,39,982.36
2020,11,13,06,40,982.36
2020,11,13,06,41,982.36
2020,11,13,06,42,982.36
2020,11,13,06,43,982.36
2020,11,13,06,44,982.36
2020,11,13,06,45,982.43
2020,11,13,06,46,982.43
2020,11,13,06,47,982.43
2020,11,13,06,48,982.43
2020,11,13,06,49,982.43
2020,11,13,06,50,982.43
2020,11,13,06,51,982.43
2020,11,13,06,52,982.43
2020,11,13,06,53,982.43
2020,11,13,06,54,982.43
2020,11,13,06,55,982.43
2020,11,13,06,56,982.43
2020,11,13,06,57,982.43
2020,11,13,06,58,982.43
2020,11,13,06,59,982.43
2020,11,13,07,00,982.36
2020,11,13,07,01,982.36
2020,11,13,07,02,982.36
2020,11,13,07,03,982.36
2020,11,13,07,04,982.36
2020,11,13,07,05,982.36
2020,11,13,07,06,982.36
2020,11,13,07,07,982.36
2020,11,13,07,08,982.36
2020,11,13,07,09,982.36
2020,11,13,07,10,982.36
2020,11,13,07,11,982.36
2020,11,13,07,12,982.36
2020,11,13,07,13,982.36
2020,11,13,07,14,982.37
2020,11,13,07,15,982.59
2020,11,13,07,16,982.59
2020,11,13,07,17,982.59
2020,11,13,07,18,982.59
2020,11,13,07,19,982.59
2020,11,13,07,20,982.59
2020,11,13,07,21,982.59
2020,11,13,07,22,982.59
2020,11,13,07,23,982.59
2020,11,13,07,24,982.59
2020,11,13,07,25,982.59
2020,11,13,07,26,982.59
2020,11,13,07,27,982.59
2020,11,13,07,28,982.59
2020,11,13,07,29,982.59
2020,11,13,07,30,982.83
2020,11,13,07,31,982.83
2020,11,13,07,32,982.83
2020,11,13,07,33,982.83
2020,11,13,07,34,982.83
2020,11,13,07,35,982.83
2020,11,13,07,36,982.83
2020,11,13,07,37,982.83
2020,11,13,07,38,982.83
2020,11,13,07,39,982.83
2020,11,13,07,40,982.83
2020,11,13,07,41,982.83
2020,11,13,07,42,982.83
2020,11,13,07,43,982.83
2020,11,13,07,44,982.84
2020,11,13,07,45,982.93
2020,11,13,07,46,982.93
2020,11,13,07,47,982.93
2020,11,13,07,48,982.93
2020,11,13,07,49,982.93
2020,11,13,07,50,982.93
2020,11,13,07,51,982.93
2020,11,13,07,52,982.93
2020,11,13,07,53,982.93
2020,11,13,07,54,982.93
2020,11,13,07,55,982.93
2020,11,13,07,56,982.93
2020,11,13,07,57,982.93
2020,11,13,07,58,982.93
2020,11,13,07,59,982.93
2020,11,13,08,00,982.93
2020,11,13,08,01,982.93
2020,11,13,08,02,982.93
2020,11,13,08,03,982.93
2020,11,13,08,04,982.93
2020,11,13,08,05,982.93
2020,11,13,08,06,982.93
2020,11,13,08,07,982.93
2020,11,13,08,08,982.93
2020,11,13,08,09,982.93
2020,11,13,08,10,982.93
2020,11,13,08,11,982.93
2020,11,13,08,12,982.93
2020,11,13,08,13,982.93
2020,11,13,08,14,982.93
2020,11,13,08,15,983.04
2020,11,13,08,16,983.04
2020,11,13,08,17,983.04
2020,11,13,08,18,983.04
2020,11,13,08,19,983.04
2020,11,13,08,20,983.04
2020,11,13,08,21,983.04
2020,11,13,08,22,983.04
2020,11,13,08,23,983.04
2020,11,13,08,24,983.04
2020,11,13,08,25,983.04
2020,11,13,08,26,983.04
2020,11,13,08,27,983.04
2020,11,13,08,28,983.04
2020,11,13,08,29,983.04
2020,11,13,08,30,983.10
2020,11,13,08,31,983.10
2020,11,13,08,32,983.10
2020,11,13,08,33,983.10
2020,11,13,08,34,983.10
2020,11,13,08,35,983.10
2020,11,13,08,36,983.10
2020,11,13,08,37,983.10
2020,11,13,08,38,983.10
2020,11,13,08,39,983.10
2020,11,13,08,40,983.10
2020,11,13,08,41,983.10
2020,11,13,08,42,983.10
2020,11,13,08,43,983.10
2020,11,13,08,44,983.10
2020,11,13,08,45,983.07
2020,11,13,08,46,983.07
2020,11,13,08,47,983.07
2020,11,13,08,48,983.07
2020,11,13,08,49,983.07
2020,11,13,08,50,983.07
2020,11,13,08,51,983.07
2020,11,13,08,52,983.07
2020,11,13,08,53,983.07
2020,11,13,08,54,983.07
2020,11,13,08,55,983.07
2020,11,13,08,56,983.07
2020,11,13,08,57,983.07
2020,11,13,08,58,983.07
2020,11,13,08,59,983.07
2020,11,13,09,00,982.93
2020,11,13,09,01,982.93
2020,11,13,09,02,982.93
2020,11,13,09,03,982.93
2020,11,13,09,04,982.93
2020,11,13,09,05,982.93
2020,11,13,09,06,982.93
2020,11,13,09,07,982.93
2020,11,13,09,08,982.93
2020,11,13,09,09,982.93
2020,11,13,09,10,982.93
2020,11,13,09,11,982.93
2020,11,13,09,12,982.93
2020,11,13,09,13,982.93
2020,11,13,09,14,982.93
2020,11,13,09,15,983.17
2020,11,13,09,16,983.17
2020,11,13,09,17,983.17
2020,11,13,09,18,983.17
2020,11,13,09,19,983.17
2020,11,13,09,20,983.17
2020,11,13,09,21,983.17
2020,11,13,09,22,983.17
2020,11,13,09,23,983.17
2020,11,13,09,24,983.17
2020,11,13,09,25,983.17
2020,11,13,09,26,983.17
2020,11,13,09,27,983.17
2020,11,13,09,28,983.17
2020,11,13,09,29,983.17
2020,11,13,09,30,983.64
2020,11,13,09,31,983.64
2020,11,13,09,32,983.64
2020,11,13,09,33,983.64
2020,11,13,09,34,983.64
2020,11,13,09,35,983.64
2020,11,13,09,36,983.64
2020,11,13,09,37,983.64
2020,11,13,09,38,983.64
2020,11,13,09,39,983.64
2020,11,13,09,40,983.64
2020,11,13,09,41,983.64
2020,11,13,09,42,983.64
2020,11,13,09,43,983.64
2020,11,13,09,44,983.64
2020,11,13,09,45,984.05
2020,11,13,09,46,984.05
2020,11,13,09,47,984.05
2020,11,13,09,48,984.05
2020,11,13,09,49,984.05
2020,11,13,09,50,984.05
2020,11,13,09,51,984.05
2020,11,13,09,52,984.05
2020,11,13,09,53,984.05
2020,11,13,09,54,984.05
2020,11,13,09,55,984.05
2020,11,13,09,56,984.05
2020,11,13,09,57,984.05
2020,11,13,09,58,984.05
2020,11,13,09,59,984.05
2020,11,13,10,00,984.19
2020,11,13,10,01,984.19
2020,11,13,10,02,984.19
2020,11,13,10,03,984.19
2020,11,13,10,04,984.19
2020,11,13,10,05,984.19
2020,11,13,10,06,984.19
2020,11,13,10,07,984.19
2020,11,13,10,08,984.19
2020,11,13,10,09,984.19
2020,11,13,10,10,984.19
2020,11,13,10,11,984.19
2020,11,13,10,12,984.19
2020,11,13,10,13,984.19
2020,11,13,10,14,984.19
2020,11,13,10,15,984.97
2020,11,13,10,16,984.97
2020,11,13,10,17,984.97
2020,11,13,10,18,984.97
2020,11,13,10,19,984.97
2020,11,13,10,20,984.97
2020,11,13,10,21,984.97
2020,11,13,10,22,984.97
2020,11,13,10,23,984.97
2020,11,13,10,24,984.97
2020,11,13,10,25,984.97
2020,11,13,10,26,984.97
2020,11,13,10,27,984.97
2020,11,13,10,28,984.97
2020,11,13,10,29,984.97
2020,11,13,10,30,985.51
2020,11,13,10,31,985.51
2020,11,13,10,32,985.51
2020,11,13,10,33,985.51
2020,11,13,10,34,985.51
2020,11,13,10,35,985.51
2020,11,13,10,36,985.51
2020,11,13,10,37,985.51
2020,11,13,10,38,985.51
2020,11,13,10,39,985.51
2020,11,13,10,40,985.51
2020,11,13,10,41,985.51
2020,11,13,10,42,985.51
2020,11,13,10,43,985.51
2020,11,13,10,44,985.51
2020,11,13,10,45,986.32
2020,11,13,10,46,986.32
2020,11,13,10,47,986.32
2020,11,13,10,48,986.32
2020,11,13,10,49,986.32
2020,11,13,10,50,986.32
2020,11,13,10,51,986.32
2020,11,13,10,52,986.32
2020,11,13,10,53,986.32
2020,11,13,10,54,986.32
2020,11,13,10,55,986.32
2020,11,13,10,56,986.32
2020,11,13,10,57,986.32
2020,11,13,10,58,986.32
2020,11,13,10,59,986.32
2020,11,13,11,00,986.96
2020,11,13,11,01,986.96
2020,11,13,11,02,986.96
2020,11,13,11,03,986.96
2020,11,13,11,04,986.96
2020,11,13,11,05,986.96
2020,11,13,11,06,986.96
2020,11,13,11,07,986.96
2020,11,13,11,08,986.96
2020,11,13,11,09,986.96
2020,11,13,11,10,986.96
2020,11,13,11,11,986.96
2020,11,13,11,12,986.96
2020,11,13,11,13,986.96
2020,11,13,11,14,986.96
2020,11,13,11,15,987.44
2020,11,13,11,16,987.44
2020,11,13,11,17,987.44
2020,11,13,11,18,987.44
2020,11,13,11,19,987.44
2020,11,13,11,20,987.44
2020,11,13,11,21,987.44
2020,11,13,11,22,987.44
2020,11,13,11,23,987.44
2020,11,13,11,24,987.44
2020,11,13,11,25,987.44
2020,11,13,11,26,987.44
2020,11,13,11,27,987.44
2020,11,13,11,28,987.44
2020,11,13,11,29,987.44
2020,11,13,11,30,987.64
2020,11,13,11,31,987.64
2020,11,13,11,32,987.64
2020,11,13,11,33,987.64
2020,11,13,11,34,987.64
2020,11,13,11,35,987.64
2020,11,13,11,36,987.64
2020,11,13,11,37,987.64
2020,11,13,11,38,987.64
2020,11,13,11,39,987.64
2020,11,13,11,40,987.64
2020,11,13,11,41,987.64
2020,11,13,11,42,987.64
2020,11,13,11,43,987.64
2020,11,13,11,44,987.64
2020,11,13,11,45,987.91
2020,11,13,11,46,987.91
2020,11,13,11,47,987.91
2020,11,13,11,48,987.91
2020,11,13,11,49,987.91
2020,11,13,11,50,987.91
2020,11,13,11,51,987.91
2020,11,13,11,52,987.91
2020,11,13,11,53,987.91
2020,11,13,11,54,987.91
2020,11,13,11,55,987.91
2020,11,13,11,56,987.91
2020,11,13,11,57,987.91
2020,11,13,11,58,987.91
2020,11,13,11,59,987.91
2020,11,13,12,00,988.05
2020,11,13,12,01,988.05
2020,11,13,12,02,988.05
2020,11,13,12,03,988.05
2020,11,13,12,04,988.05
2020,11,13,12,05,988.05
2020,11,13,12,06,988.05
2020,11,13,12,07,988.05
2020,11,13,12,08,988.05
2020,11,13,12,09,988.05
2020,11,13,12,10,988.05
2020,11,13,12,11,988.05
2020,11,13,12,12,988.05
2020,11,13,12,13,988.05
2020,11,13,12,14,988.05
2020,11,13,12,15,988.59
2020,11,13,12,16,988.59
2020,11,13,12,17,988.59
2020,11,13,12,18,988.59
2020,11,13,12,19,988.59
2020,11,13,12,20,988.59
2020,11,13,12,21,988.59
2020,11,13,12,22,988.59
2020,11,13,12,23,988.59
2020,11,13,12,24,988.59
2020,11,13,12,25,988.59
2020,11,13,12,26,988.59
2020,11,13,12,27,988.59
2020,11,13,12,28,988.59
2020,11,13,12,29,988.59
2020,11,13,12,30,989.06
2020,11,13,12,31,989.06
2020,11,13,12,32,989.06
2020,11,13,12,33,989.06
2020,11,13,12,34,989.06
2020,11,13,12,35,989.06
2020,11,13,12,36,989.06
2020,11,13,12,37,989.06
2020,11,13,12,38,989.06
2020,11,13,12,39,989.06
2020,11,13,12,40,989.06
2020,11,13,12,41,989.06
2020,11,13,12,42,989.06
2020,11,13,12,43,989.06
2020,11,13,12,44,989.06
2020,11,13,12,45,989.37
2020,11,13,12,46,989.37
2020,11,13,12,47,989.37
2020,11,13,12,48,989.37
2020,11,13,12,49,989.37
2020,11,13,12,50,989.37
2020,11,13,12,51,989.37
2020,11,13,12,52,989.37
2020,11,13,12,53,989.37
2020,11,13,12,54,989.37
2020,11,13,12,55,989.37
2020,11,13,12,56,989.37
2020,11,13,12,57,989.37
2020,11,13,12,58,989.37
2020,11,13,12,59,989.37
2020,11,13,13,00,989.60
2020,11,13,13,01,989.60
2020,11,13,13,02,989.60
2020,11,13,13,03,989.60
2020,11,13,13,04,989.60
2020,11,13,13,05,989.60
2020,11,13,13,06,989.60
2020,11,13,13,07,989.60
2020,11,13,13,08,989.60
2020,11,13,13,09,989.60
2020,11,13,13,10,989.60
2020,11,13,13,11,989.60
2020,11,13,13,12,989.60
2020,11,13,13,13,989.60
2020,11,13,13,14,989.60
2020,11,13,13,15,990.15
2020,11,13,13,16,990.15
2020,11,13,13,17,990.15
2020,11,13,13,18,990.15
2020,11,13,13,19,990.15
2020,11,13,13,20,990.15
2020,11,13,13,21,990.15
2020,11,13,13,22,990.15
2020,11,13,13,23,990.15
2020,11,13,13,24,990.15
2020,11,13,13,25,990.15
2020,11,13,13,26,990.15
2020,11,13,13,27,990.15
2020,11,13,13,28,990.15
2020,11,13,13,29,990.15
2020,11,13,13,30,990.18
2020,11,13,13,31,990.18
2020,11,13,13,32,990.18
2020,11,13,13,33,990.18
2020,11,13,13,34,990.18
2020,11,13,13,35,990.18
2020,11,13,13,36,990.18
2020,11,13,13,37,990.18
2020,11,13,13,38,990.18
2020,11,13,13,39,990.18
2020,11,13,13,40,990.18
2020,11,13,13,41,990.18
2020,11,13,13,42,990.18
2020,11,13,13,43,990.18
2020,11,13,13,44,990.18
2020,11,13,13,45,990.93
2020,11,13,13,46,990.93
2020,11,13,13,47,990.93
2020,11,13,13,48,990.93
2020,11,13,13,49,990.93
2020,11,13,13,50,990.93
2020,11,13,13,51,990.93
2020,11,13,13,52,990.93
2020,11,13,13,53,990.93
2020,11,13,13,54,990.93
2020,11,13,13,55,990.93
2020,11,13,13,56,990.93
2020,11,13,13,57,990.93
2020,11,13,13,58,990.93
2020,11,13,13,59,990.93
2020,11,13,14,00,991.16
2020,11,13,14,01,991.16
2020,11,13,14,02,991.16
2020,11,13,14,03,991.16
2020,11,13,14,04,991.16
2020,11,13,14,05,991.16
2020,11,13,14,06,991.16
2020,11,13,14,07,991.16
2020,11,13,14,08,991.16
2020,11,13,14,09,991.16
2020,11,13,14,10,991.16
2020,11,13,14,11,991.16
2020,11,13,14,12,991.16
2020,11,13,14,13,991.16
2020,11,13,14,14,991.16
2020,11,13,14,15,991.64
2020,11,13,14,16,991.64
2020,11,13,14,17,991.64
2020,11,13,14,18,991.64
2020,11,13,14,19,991.64
2020,11,13,14,20,991.64
2020,11,13,14,21,991.64
2020,11,13,14,22,991.64
2020,11,13,14,23,991.64
2020,11,13,14,24,991.64
2020,11,13,14,25,991.64
2020,11,13,14,26,991.64
2020,11,13,14,27,991.64
2020,11,13,14,28,991.64
2020,11,13,14,29,991.64
2020,11,13,14,30,992.21
2020,11,13,14,31,992.21
2020,11,13,14,32,992.21
2020,11,13,14,33,992.21
2020,11,13,14,34,992.21
2020,11,13,14,35,992.21
2020,11,13,14,36,992.21
2020,11,13,14,37,992.21
2020,11,13,14,38,992.21
2020,11,13,14,39,992.21
2020,11,13,14,40,992.21
2020,11,13,14,41,992.21
2020,11,13,14,42,992.21
2020,11,13,14,43,992.21
2020,11,13,14,44,992.21
2020,11,13,14,45,992.69
2020,11,13,14,46,992.69
2020,11,13,14,47,992.69
2020,11,13,14,48,992.69
2020,11,13,14,49,992.69
2020,11,13,14,50,992.69
2020,11,13,14,51,992.69
2020,11,13,14,52,992.69
2020,11,13,14,53,992.69
2020,11,13,14,54,992.69
2020,11,13,14,55,992.69
2020,11,13,14,56,992.69
2020,11,13,14,57,992.69
2020,11,13,14,58,992.69
2020,11,13,14,59,992.69
2020,11,13,15,00,993.23
2020,11,13,15,01,993.23
2020,11,13,15,02,993.23
2020,11,13,15,03,993.23
2020,11,13,15,04,993.23
2020,11,13,15,05,993.23
2020,11,13,15,06,993.23
2020,11,13,15,07,993.23
2020,11,13,15,08,993.23
2020,11,13,15,09,993.23
2020,11,13,15,10,993.23
2020,11,13,15,11,993.23
2020,11,13,15,12,993.23
2020,11,13,15,13,993.23
2020,11,13,15,14,993.23
2020,11,13,15,15,993.61
2020,11,13,15,16,993.63
2020,11,13,15,17,993.63
2020,11,13,15,18,993.63
2020,11,13,15,19,993.63
2020,11,13,15,20,993.63
2020,11,13,15,21,993.63
2020,11,13,15,22,993.63
2020,11,13,15,23,993.63
2020,11,13,15,24,993.63
2020,11,13,15,25,993.63
2020,11,13,15,26,993.63
2020,11,13,15,27,993.63
2020,11,13,15,28,993.63
2020,11,13,15,29,993.63
2020,11,13,15,30,993.80
2020,11,13,15,31,993.80
2020,11,13,15,32,993.80
2020,11,13,15,33,993.80
2020,11,13,15,34,993.80
2020,11,13,15,35,993.80
2020,11,13,15,36,993.80
2020,11,13,15,37,993.80
2020,11,13,15,38,993.80
2020,11,13,15,39,993.80
2020,11,13,15,40,993.80
2020,11,13,15,41,993.80
2020,11,13,15,42,993.80
2020,11,13,15,43,993.80
2020,11,13,15,44,993.80
2020,11,13,15,45,994.41
2020,11,13,15,46,994.41
2020,11,13,15,47,994.41
2020,11,13,15,48,994.41
2020,11,13,15,49,994.41
2020,11,13,15,50,994.41
2020,11,13,15,51,994.41
2020,11,13,15,52,994.41
2020,11,13,15,53,994.41
2020,11,13,15,54,994.41
2020,11,13,15,55,994.41
2020,11,13,15,56,994.41
2020,11,13,15,57,994.41
2020,11,13,15,58,994.41
2020,11,13,15,59,994.41
2020,11,13,16,00,994.72
2020,11,13,16,01,994.72
2020,11,13,16,02,994.72
2020,11,13,16,03,994.72
2020,11,13,16,04,994.72
2020,11,13,16,05,994.72
2020,11,13,16,06,994.72
2020,11,13,16,07,994.72
2020,11,13,16,08,994.72
2020,11,13,16,09,994.72
2020,11,13,16,10,994.72
2020,11,13,16,11,994.72
2020,11,13,16,12,994.72
2020,11,13,16,13,994.72
2020,11,13,16,14,994.72
2020,11,13,16,15,995.16
2020,11,13,16,16,995.16
2020,11,13,16,17,995.16
2020,11,13,16,18,995.16
2020,11,13,16,19,995.16
2020,11,13,16,20,995.16
2020,11,13,16,21,995.16
2020,11,13,16,22,995.16
2020,11,13,16,23,995.16
2020,11,13,16,24,995.16
2020,11,13,16,25,995.16
2020,11,13,16,26,995.16
2020,11,13,16,27,995.16
2020,11,13,16,28,995.16
2020,11,13,16,29,995.16
2020,11,13,16,30,995.58
2020,11,13,16,31,995.60
2020,11,13,16,32,995.60
2020,11,13,16,33,995.60
2020,11,13,16,34,995.60
2020,11,13,16,35,995.60
2020,11,13,16,36,995.60